FENGYUN 1C DEB, 29921

Orbit data source: Space-Track

FENGYUN 1C DEB, 29921 is space debris in SSO originally from a launch on Mon, 10 May 1999 UTC launched from the Taiyaun Space Center, China (TSC). Fengyun 1C debris stems from the Chinese weather satellite Fengyun-1C, which was intentionally destroyed by a Chinese anti-satellite missile in 2007. This event dramatically increased the amount of space debris, with thousands of trackable fragments posing hazards to satellites and human spaceflight. The Fengyun 1C debris cloud has become a focal point in discussions about space sustainability and the need for international regulations to prevent the creation of new debris.

Loading next visibility...
Identifier
29921, 1999-025HT
Orbit
SSO
Country
Flag of CNCN / PRC
Related business
Manufacturer
Unknown
Mission
Spacecraft
Bus & Motor
Unknown
Mass
Unknown
Launch date (UTC)
1999-05-10 (27 years ago)
Launch vehicle
Unknown
Launch site
Taiyaun Space Center, China (TSC)
Object type
Payload
Rocket body
Debris
Shape & HBR
Unknown shape, 0.1 m
Radar Cross Section
Medium (>0.1 m² and <1 m²)

Expand to show TLE details & history
Last TLE update: 16 hours ago

TLE from 16 hours ago
0 FENGYUN 1C DEB
1 29921U 99025HT  26207.49363347  .00000421  00000-0  27542-3 0  9994
2 29921  98.7863 212.2012 0045990 152.7156 359.7242 14.06904855   509
Epoch: 2026-07-26T11:50Z
TLE epoch observation values (Epoch: 2026-07-26T11:50:49.931Z)
Latitude
27.25243°
Longitude
-85.15546°
Altitude
839.954 km
Speed
7.452 km/s
True Right ascension
02h 26m 58s
True Declination
27° 06' 51"
Sunlit
Object was in daylight at epoch
Visualization orbit readout
Latitude
Unknown
Longitude
Unknown
Altitude
Unknown
Speed
Unknown
Apparent Right ascension
Unknown
Apparent Declination
Unknown
Sunlit
N/A
Visualization observer readout
Local Sidereal Time
17:06:53
Azimuth
Unknown
Elevation
Unknown
Doppler factor
Unknown
Orbital elements
Apogee altitude
900.484 km
Perigee altitude
833.841 km
Semi-major axis
7,245.299 km
Eccentricity
0.0046
Inclination
98.7863°
RAAN
212.2012°
Arg. of periapsis
152.7156°
True anomaly
359.72165°
Mean anomaly
359.7242°
Eccentric anomaly
359.72293°
Mean motion
3.51932 °/min
Orbital period
102.29 mins
BSTAR
0.00027542
Loading maneuver chart data...
Computing Atmospheric mass density...

Documentation

Showing up to 5 results
|